Precipitable_Water
0.47 0.50 0.59 0.45 0.22 0.23 0.20 0.23 0.29 0.28 0.32 0.41 0.45 0.51 0.53 0.60 0.64 0.54 1.33 1.46 1.55 1.64 1.65 1.60 1.89 1.89 1.71 1.63 1.59 1.55 1.43 1.10 0.94 0.93 0.97 1.00 0.97 0.89 0.89 0.90 0.88 0.83 0.85 0.90 0.94 0.93 0.94 0.96 1.02
0.46 0.49 0.51 0.39 0.23 0.18 0.21 0.27 0.27 0.33 0.42 0.52 0.63 0.64 0.60 0.62 0.96 1.10 1.26 1.51 1.49 1.49 1.61 1.55 1.44 1.65 1.83 1.72 1.68 1.60 1.43 1.10 0.98 0.97 1.00 1.01 0.98 0.95 0.94 0.91 0.88 0.81 0.81 0.91 0.94 0.96 0.95 0.95 0.97
0.41 0.50 0.36 0.30 0.25 0.22 0.23 0.30 0.33 0.44 0.54 0.60 0.57 0.81 0.78 0.75 0.90 1.07 1.36 1.47 1.46 1.40 1.62 1.61 1.59 1.58 1.65 1.77 1.74 1.64 1.43 1.08 0.99 1.02 1.07 1.12 1.07 1.00 0.96 0.93 0.84 0.78 0.81 0.91 0.95 0.94 0.92 0.86 0.90
0.43 0.42 0.40 0.28 0.24 0.30 0.31 0.33 0.40 0.45 0.48 0.55 0.56 0.54 0.92 1.11 1.11 1.21 1.41 1.30 1.25 1.35 1.54 1.58 1.46 1.38 1.52 1.70 1.74 1.66 1.40 1.05 1.02 1.06 1.14 1.21 1.14 1.02 0.97 0.91 0.85 0.82 0.83 0.89 0.90 0.92 0.88 0.91 0.96
0.51 0.43 0.27 0.26 0.26 0.30 0.34 0.42 0.45 0.41 0.47 0.52 0.54 0.52 0.64 0.89 1.12 1.22 1.34 1.36 1.24 1.37 1.47 1.49 1.55 1.66 1.80 1.81 1.88 1.68 1.34 1.03 1.03 1.09 1.15 1.20 1.10 1.02 0.99 0.92 0.88 0.85 0.80 0.86 0.91 0.92 0.91 0.96 1.04
0.34 0.38 0.25 0.21 0.25 0.31 0.34 0.50 0.56 0.51 0.53 0.53 0.52 0.54 0.57 0.89 0.96 1.17 1.30 1.36 1.45 1.38 1.64 1.62 1.67 1.70 1.88 1.79 1.77 1.67 1.21 1.02 1.03 1.10 1.18 1.18 1.12 1.05 1.01 0.96 0.92 0.87 0.82 0.84 0.90 0.91 0.93 0.92 0.98
0.31 0.28 0.24 0.26 0.27 0.31 0.41 0.53 0.50 0.52 0.55 0.56 0.72 0.53 0.66 0.82 0.99 1.22 1.38 1.44 1.52 1.63 1.69 1.68 1.76 1.88 1.87 1.76 1.59 1.58 1.21 1.05 1.09 1.17 1.19 1.15 1.13 1.06 1.03 0.99 0.94 0.91 0.88 0.82 0.82 0.87 0.93 0.92 0.88
0.35 0.32 0.27 0.30 0.29 0.33 0.43 0.49 0.58 0.56 0.55 0.77 0.81 0.58 0.64 0.90 1.12 1.28 1.43 1.34 1.55 1.72 1.71 1.65 1.68 1.71 1.66 1.64 1.61 1.47 1.16 1.06 1.10 1.18 1.22 1.17 1.15 1.11 1.05 1.02 0.99 0.98 0.95 0.90 0.80 0.78 0.87 0.89 0.88
0.40 0.29 0.26 0.29 0.28 0.33 0.45 0.45 0.61 0.73 0.68 0.73 0.76 0.76 0.89 1.06 1.23 1.32 1.27 1.21 1.59 1.75 1.70 1.68 1.63 1.63 1.65 1.58 1.48 1.39 1.12 1.08 1.14 1.18 1.18 1.20 1.18 1.14 1.08 1.07 1.04 1.01 1.01 0.94 0.82 0.82 0.81 0.82 0.80
0.31 0.27 0.28 0.33 0.33 0.42 0.52 0.51 0.57 0.60 0.60 0.65 0.67 0.73 0.92 1.05 1.16 1.24 1.14 1.09 1.41 1.47 1.56 1.68 1.67 1.61 1.58 1.53 1.51 1.42 1.28 1.20 1.19 1.24 1.19 1.16 1.16 1.13 1.10 1.13 1.08 1.08 1.09 1.03 0.91 0.87 0.85 0.82 0.75
0.30 0.24 0.31 0.32 0.36 0.49 0.51 0.51 0.60 0.52 0.50 0.69 0.63 0.68 0.85 0.95 1.09 1.23 1.22 1.21 1.30 1.38 1.49 1.51 1.61 1.58 1.52 1.45 1.39 1.39 1.17 1.13 1.17 1.20 1.18 1.17 1.17 1.13 1.12 1.14 1.12 1.13 1.10 1.02 0.97 0.98 0.96 0.87 0.76
0.28 0.35 0.35 0.33 0.41 0.49 0.47 0.55 0.61 0.66 0.72 0.85 0.78 0.86 0.86 0.86 1.00 1.11 1.18 1.20 1.28 1.33 1.36 1.47 1.54 1.53 1.51 1.54 1.42 1.24 1.08 1.07 1.07 1.11 1.11 1.11 1.12 1.06 1.09 1.08 1.10 1.05 1.06 1.04 1.01 1.00 1.02 0.95 0.82
0.34 0.37 0.40 0.39 0.42 0.49 0.56 0.56 0.58 0.67 0.82 0.86 0.81 0.78 0.78 0.86 0.93 1.07 1.19 1.21 1.26 1.24 1.31 1.39 1.43 1.47 1.45 1.39 1.33 1.20 1.09 1.08 1.08 1.09 1.08 1.08 1.04 1.00 1.02 1.07 1.02 1.03 1.05 1.01 0.98 1.00 0.99 0.97 0.91
0.36 0.37 0.36 0.36 0.41 0.49 0.50 0.56 0.62 0.67 0.80 0.72 0.73 0.73 0.81 0.87 0.96 1.06 1.11 1.10 1.17 1.25 1.28 1.35 1.33 1.35 1.37 1.32 1.22 1.14 1.11 1.10 1.10 1.14 1.13 1.09 1.04 1.00 0.99 0.99 0.95 1.02 1.03 1.02 1.05 1.04 1.00 0.94 0.90
0.34 0.29 0.29 0.33 0.41 0.43 0.56 0.50 0.53 0.73 0.79 0.70 0.67 0.73 0.83 0.97 1.05 1.07 1.15 1.17 1.19 1.22 1.29 1.31 1.34 1.32 1.29 1.28 1.30 1.26 1.17 1.19 1.16 1.20 1.20 1.13 1.08 1.04 1.02 0.99 0.99 1.01 1.04 1.08 1.10 1.06 1.00 0.93 0.89
0.27 0.30 0.27 0.35 0.40 0.48 0.53 0.39 0.52 0.71 0.76 0.70 0.62 0.68 0.73 0.79 0.87 0.97 1.11 1.19 1.20 1.20 1.20 1.32 1.28 1.31 1.27 1.18 1.25 1.22 1.23 1.26 1.24 1.20 1.21 1.18 1.15 1.14 1.10 1.09 1.14 1.20 1.21 1.12 1.07 1.03 0.96 0.90 0.81
0.22 0.21 0.28 0.30 0.40 0.47 0.52 0.41 0.53 0.65 0.64 0.63 0.65 0.64 0.61 0.62 0.74 0.85 0.98 1.12 1.17 1.22 1.24 1.29 1.29 1.26 1.22 1.19 1.22 1.14 1.16 1.16 1.23 1.15 1.11 1.17 1.16 1.18 1.17 1.16 1.17 1.22 1.23 1.09 1.05 1.00 0.95 0.84 0.79
0.20 0.27 0.29 0.29 0.41 0.45 0.47 0.40 0.48 0.64 0.69 0.61 0.63 0.60 0.60 0.58 0.63 0.74 0.86 1.04 1.17 1.16 1.17 1.23 1.27 1.24 1.23 1.21 1.12 1.09 1.09 1.17 1.22 1.10 1.06 1.10 1.16 1.19 1.11 1.11 1.16 1.19 1.09 1.07 1.02 0.96 0.95 0.92 0.89
0.29 0.31 0.29 0.32 0.38 0.43 0.40 0.38 0.43 0.57 0.65 0.64 0.58 0.58 0.53 0.57 0.70 0.74 0.78 0.90 1.01 1.10 1.12 1.13 1.14 1.19 1.19 1.14 1.07 1.01 1.00 1.07 1.08 1.03 1.02 1.03 1.08 1.05 1.04 1.10 1.13 1.19 1.14 1.09 1.04 0.99 0.97 0.97 1.00
0.35 0.32 0.30 0.34 0.41 0.45 0.43 0.39 0.48 0.53 0.58 0.62 0.58 0.57 0.58 0.54 0.63 0.71 0.71 0.78 0.83 0.91 0.96 0.96 1.03 1.05 1.04 1.07 1.10 1.06 1.00 1.00 0.96 0.97 0.95 0.94 0.91 0.92 0.94 0.96 1.03 1.07 1.07 1.07 1.06 1.01 0.99 1.03 1.02
0.35 0.31 0.27 0.29 0.34 0.43 0.40 0.37 0.43 0.53 0.62 0.69 0.67 0.66 0.67 0.55 0.50 0.62 0.67 0.69 0.75 0.80 0.89 0.94 0.94 0.92 0.97 1.03 1.01 0.94 0.91 0.90 0.85 0.85 0.87 0.88 0.91 0.95 0.96 1.04 1.04 1.07 1.07 0.99 1.06 1.09 1.06 1.01 1.05
0.30 0.37 0.29 0.30 0.31 0.27 0.36 0.24 0.34 0.46 0.51 0.61 0.64 0.64 0.63 0.66 0.57 0.60 0.63 0.64 0.67 0.73 0.82 0.87 0.91 0.86 0.88 0.93 0.86 0.79 0.73 0.71 0.78 0.83 0.84 0.79 0.82 0.85 0.93 1.05 1.18 1.20 1.15 1.04 1.07 1.14 1.14 1.15 1.04
0.34 0.38 0.31 0.31 0.31 0.31 0.30 0.26 0.30 0.46 0.48 0.55 0.63 0.67 0.66 0.67 0.66 0.58 0.63 0.65 0.64 0.71 0.74 0.78 0.80 0.81 0.82 0.81 0.82 0.75 0.72 0.76 0.80 0.85 0.79 0.78 0.83 0.95 1.10 1.17 1.20 1.19 1.21 1.24 1.23 1.20 1.19 1.19 1.11
0.42 0.35 0.34 0.35 0.31 0.22 0.26 0.28 0.26 0.37 0.45 0.50 0.62 0.67 0.71 0.70 0.73 0.69 0.66 0.72 0.71 0.70 0.69 0.70 0.71 0.74 0.77 0.75 0.78 0.77 0.75 0.77 0.79 0.82 0.87 0.88 0.89 1.03 1.13 1.22 1.24 1.25 1.27 1.24 1.31 1.34 1.24 1.19 1.12
0.39 0.34 0.23 0.22 0.22 0.19 0.34 0.29 0.27 0.40 0.46 0.47 0.52 0.55 0.64 0.71 0.76 0.73 0.70 0.69 0.74 0.72 0.71 0.70 0.68 0.69 0.75 0.77 0.82 0.84 0.87 0.91 0.96 1.06 1.04 0.98 1.00 1.08 1.11 1.19 1.28 1.24 1.25 1.26 1.28 1.27 1.22 1.13 1.08
0.36 0.35 0.25 0.17 0.19 0.23 0.37 0.28 0.31 0.43 0.47 0.50 0.52 0.53 0.60 0.65 0.73 0.76 0.79 0.77 0.73 0.75 0.76 0.77 0.74 0.71 0.74 0.77 0.81 0.86 0.94 1.02 1.06 1.12 1.13 1.09 1.05 1.09 1.13 1.17 1.20 1.21 1.22 1.24 1.22 1.20 1.13 1.06 1.00
0.36 0.30 0.35 0.28 0.33 0.26 0.33 0.38 0.42 0.45 0.42 0.45 0.48 0.53 0.56 0.61 0.65 0.75 0.81 0.82 0.86 0.82 0.81 0.80 0.78 0.76 0.77 0.80 0.85 0.89 0.96 1.03 1.13 1.18 1.16 1.17 1.11 1.06 1.15 1.17 1.16 1.18 1.21 1.14 1.13 1.10 1.06 1.03 0.97
0.39 0.41 0.32 0.34 0.22 0.18 0.28 0.35 0.34 0.38 0.39 0.39 0.41 0.46 0.53 0.55 0.61 0.68 0.76 0.83 0.84 0.86 0.91 0.95 0.93 0.86 0.85 0.92 0.98 1.04 1.04 1.06 1.13 1.16 1.14 1.23 1.22 1.25 1.19 1.19 1.18 1.18 1.15 1.07 1.06 1.03 0.97 0.90 0.91
0.37 0.34 0.37 0.37 0.32 0.21 0.20 0.28 0.42 0.42 0.42 0.38 0.38 0.44 0.47 0.50 0.54 0.61 0.71 0.79 0.84 0.88 0.94 0.99 1.07 1.11 1.11 1.16 1.09 1.11 1.15 1.19 1.24 1.23 1.20 1.24 1.33 1.30 1.30 1.25 1.18 1.15 1.09 1.06 1.01 0.97 0.93 0.90 0.91
0.43 0.38 0.37 0.30 0.29 0.30 0.29 0.27 0.47 0.44 0.45 0.40 0.41 0.43 0.47 0.51 0.55 0.57 0.60 0.69 0.76 0.80 0.88 0.92 1.01 1.06 1.12 1.10 1.05 1.00 1.17 1.28 1.32 1.34 1.35 1.30 1.12 1.27 1.32 1.28 1.21 1.13 1.07 1.06 0.97 0.92 0.92 0.89 0.81
Wind_Speed
15 13 12 12 11 9 11 13 15 19 15 12 12 12 9 10 10 13 16 17 18 19 22 21 23 27 28 27 26 24 23 20 19 17 16 16 15 14 13 13 12 12 12 11 10 8 7 7 6
13 12 12 10 8 8 10 13 15 18 10 8 5 9 8 10 11 11 13 19 21 22 26 22 21 18 25 29 28 26 24 22 20 19 18 17 16 16 14 14 13 13 12 11 9 8 7 7 7
11 10 9 7 6 8 12 13 16 10 6 7 6 6 8 9 12 14 15 20 24 23 25 25 22 20 22 29 29 28 26 23 22 21 19 18 17 16 16 15 14 13 11 10 9 8 7 6 6
10 10 8 6 10 14 13 16 10 8 8 11 9 9 9 9 12 15 17 17 21 22 22 23 26 25 30 33 34 32 27 24 24 23 21 18 17 17 17 15 13 12 11 9 9 8 6 5 7
9 8 6 8 12 13 14 10 9 8 10 13 12 12 12 13 14 15 16 19 21 24 25 24 24 23 24 33 37 35 28 26 25 23 21 20 19 18 16 14 13 11 10 10 9 7 5 6 8
8 7 6 8 10 12 10 6 6 9 12 13 13 12 15 16 18 19 19 20 21 23 28 23 22 21 18 28 28 28 26 26 25 24 22 21 19 17 15 14 13 12 11 10 9 8 7 7 8
6 7 7 8 12 13 5 6 8 8 9 11 11 12 15 16 16 16 17 18 18 18 25 23 22 21 21 19 23 19 25 26 26 25 23 21 19 17 15 14 13 12 11 9 9 9 8 7 7
5 4 7 6 8 10 9 8 9 11 12 12 14 13 14 14 16 15 16 14 13 18 22 22 22 21 18 18 19 30 30 27 26 25 23 21 20 17 16 14 13 12 11 10 10 10 8 6 6
6 5 7 9 9 9 11 8 11 10 11 12 13 12 13 13 11 9 8 9 19 18 17 18 20 19 19 18 18 27 29 27 26 23 23 22 20 18 17 14 12 12 11 12 10 9 7 6 6
5 6 10 9 13 7 10 10 11 10 11 12 11 10 10 10 9 8 8 2 11 15 16 19 18 19 20 20 23 21 20 27 26 23 22 22 20 19 17 13 13 11 11 11 10 9 7 6 6
8 11 16 17 12 7 8 11 10 12 15 13 9 12 9 8 6 8 9 9 9 12 15 18 18 18 17 19 20 19 21 24 24 24 24 22 20 19 16 14 13 11 12 12 10 8 7 7 7
11 14 17 13 7 8 9 8 10 15 14 9 7 7 7 7 6 9 10 12 13 14 15 18 18 16 17 18 20 20 21 23 22 22 24 23 19 19 17 15 13 12 12 11 10 8 7 8 7
10 12 13 10 6 6 5 8 10 12 9 5 7 8 8 8 6 7 11 13 13 15 17 18 19 18 17 19 20 21 21 21 23 23 23 22 20 19 17 15 14 14 13 12 11 9 8 9 8
13 15 13 9 6 5 6 8 10 9 7 6 7 8 9 10 8 9 11 13 15 16 17 19 19 19 19 20 20 21 21 22 24 24 23 22 21 19 17 16 16 15 14 13 11 10 9 9 9
13 13 12 10 9 7 7 7 10 7 5 5 6 7 10 6 1 6 10 12 15 16 18 20 20 20 21 23 22 20 22 23 25 23 24 23 21 19 17 17 16 15 15 13 12 11 10 9 9
11 8 5 4 6 9 7 11 8 5 4 3 4 6 7 7 5 2 6 12 15 17 18 22 21 20 22 22 23 22 23 23 25 23 22 21 22 20 21 18 17 16 16 14 12 11 11 10 10
7 8 8 11 10 6 6 9 6 3 3 2 2 3 4 5 6 4 2 6 13 17 19 22 21 22 21 24 25 22 24 23 25 24 21 21 20 21 20 18 17 16 16 14 13 12 12 11 12
7 7 9 11 9 6 8 9 5 3 3 3 3 2 1 3 4 4 4 5 8 14 17 19 20 22 23 23 26 25 24 24 23 24 24 22 21 22 19 17 16 16 16 15 14 13 13 13 14
10 11 13 15 11 8 7 7 7 5 3 3 3 4 3 2 2 4 5 7 10 13 15 17 18 19 19 22 24 25 24 23 22 25 25 23 22 21 19 17 17 16 17 17 17 16 16 16 16
13 14 16 11 6 7 7 10 7 6 6 6 5 5 5 4 4 4 5 7 9 12 14 15 17 19 19 20 21 20 22 21 22 22 23 24 21 20 20 20 19 19 18 18 19 19 18 18 18
15 14 13 10 10 9 7 10 6 8 7 7 7 7 7 6 7 6 7 8 10 12 14 15 17 18 19 19 20 20 21 19 20 21 20 21 21 21 21 20 20 20 21 21 21 22 21 21 21
16 15 11 10 6 8 8 10 9 10 11 10 9 9 9 8 8 8 9 10 11 12 13 15 16 18 19 19 19 20 20 19 18 17 18 19 20 20 20 21 21 21 22 23 23 23 24 24 24
14 12 12 10 9 8 10 8 10 9 11 14 14 13 11 11 10 11 11 11 12 13 14 14 15 17 18 19 19 19 18 17 17 17 18 19 19 19 18 21 22 22 24 25 25 25 25 26 26
16 11 9 8 8 9 12 10 11 10 14 14 15 14 14 13 13 11 12 12 13 14 15 16 16 17 19 19 19 18 18 17 17 17 17 17 18 18 19 19 20 24 27 27 26 25 24 25 26
14 10 9 8 8 10 7 7 11 14 15 15 17 16 15 15 15 15 14 14 14 15 16 17 18 18 19 20 19 19 19 19 18 17 18 19 19 18 19 18 19 15 18 23 23 24 24 25 26
16 14 13 10 9 9 9 8 8 9 9 13 17 17 15 16 17 16 16 16 16 17 19 19 19 20 21 21 21 21 21 20 20 19 20 20 20 21 20 19 18 18 16 18 20 22 24 25 25
15 14 16 12 11 9 10 12 13 8 8 9 13 15 16 17 18 19 19 19 18 18 20 22 22 22 22 24 24 24 24 24 22 22 22 22 22 22 22 21 20 19 19 20 22 23 24 24 25
21 16 12 13 12 12 12 11 10 9 10 9 9 14 16 17 17 19 20 20 20 21 21 22 23 24 24 25 26 27 27 27 26 25 25 25 24 23 22 21 21 21 22 22 23 23 24 24 25
18 18 15 15 15 13 12 12 11 12 13 12 11 11 13 14 15 17 19 21 21 21 23 24 25 25 25 24 30 30 31 31 30 30 27 26 26 27 22 22 21 22 23 23 24 24 24 25 25
20 23 21 18 17 15 14 17 13 11 13 12 13 13 12 12 14 16 16 19 21 22 22 23 24 26 28 25 20 25 30 31 30 34 27 27 22 23 23 23 23 23 24 24 24 25 25 25 26
Wind_Direction
312 312 313 317 318 314 297 305 306 306 292 280 269 262 254 247 242 228 237 223 214 210 209 216 217 196 201 200 198 197 195 191 187 184 178 175 172 169 166 164 162 158 156 154 149 143 137 130 126
314 312 317 316 321 316 304 308 316 302 280 294 274 259 261 247 238 229 228 220 222 234 230 230 232 216 207 201 198 196 192 190 187 184 180 175 172 170 167 163 160 158 156 154 151 146 140 131 122
316 317 319 318 317 306 300 312 314 317 321 293 268 277 265 252 243 240 248 235 234 239 230 230 224 218 219 197 199 196 192 190 186 181 176 174 172 169 164 161 160 158 158 158 156 153 145 137 137
315 316 318 318 301 310 300 297 309 305 294 312 282 278 272 267 260 255 251 241 235 227 228 226 228 240 218 218 206 195 189 186 182 180 177 175 171 168 164 163 161 161 159 161 158 154 149 140 145
318 320 320 316 307 305 308 298 300 318 291 295 295 277 267 263 273 261 255 241 232 234 233 230 226 221 215 210 180 189 183 182 181 179 178 174 172 170 168 165 164 162 162 160 158 155 145 139 149
314 317 319 309 314 319 316 321 309 313 304 298 290 274 272 270 275 269 253 243 241 246 222 216 211 209 181 177 173 183 183 181 181 181 179 176 174 172 171 170 167 164 160 161 162 158 143 130 142
303 311 292 302 311 328 333 322 316 316 316 322 305 286 279 278 280 268 251 248 245 214 195 199 200 192 194 193 201 183 182 181 181 181 180 178 178 175 172 171 168 166 165 166 165 162 152 135 133
302 307 303 303 331 321 325 329 331 322 315 314 309 292 290 289 287 270 253 239 231 188 187 196 196 200 204 208 213 206 183 180 181 179 181 179 178 177 174 171 171 171 170 166 162 162 163 159 137
292 295 293 295 318 305 330 324 329 326 321 321 318 310 301 291 284 263 236 247 202 184 182 190 193 195 195 188 181 171 179 183 181 181 181 182 182 181 176 176 175 171 170 167 166 167 168 171 151
280 283 284 292 316 307 326 327 318 320 325 319 320 327 320 302 283 233 222 209 193 182 187 188 188 181 172 181 178 178 179 186 184 184 185 184 183 183 180 181 183 187 184 177 173 173 176 177 166
280 274 288 288 292 285 312 325 321 313 318 319 309 316 315 319 265 227 222 207 195 187 188 187 184 181 190 188 184 185 181 180 185 189 188 184 187 183 192 192 189 194 185 189 188 188 195 192 182
294 285 288 284 276 293 304 317 327 328 329 323 331 325 322 316 264 232 222 215 206 203 199 199 197 198 194 191 187 184 183 185 187 185 186 188 186 190 193 195 197 195 190 190 194 200 199 197 197
287 297 308 288 280 297 310 320 321 330 336 345 341 333 320 317 277 240 218 214 215 211 206 206 206 204 199 193 185 188 192 190 189 186 188 190 192 195 195 200 199 197 195 199 201 207 207 207 208
291 296 290 290 269 266 295 306 325 323 322 341 338 339 330 310 277 233 219 216 214 211 212 207 207 205 199 195 194 191 192 192 188 189 193 194 195 199 204 207 200 200 206 205 209 210 212 213 213
290 298 292 273 262 278 289 308 317 343 308 334 345 355 358 11 331 214 213 212 213 211 211 207 205 207 203 196 198 198 197 196 194 196 195 197 201 205 206 198 203 206 204 210 213 216 215 217 222
291 293 309 273 279 285 283 297 304 316 320 303 342 3 20 48 61 99 210 215 212 212 205 206 210 206 203 203 202 200 196 194 194 195 197 204 207 206 200 203 206 210 210 214 219 219 222 228 231
274 266 267 298 283 263 254 300 289 292 286 278 302 356 17 59 51 66 108 200 208 201 203 206 207 206 203 203 201 198 198 197 200 202 205 199 200 198 199 202 208 212 214 218 220 224 231 234 241
244 261 295 289 284 282 269 280 289 259 270 243 245 235 42 81 56 76 91 109 168 188 196 199 200 200 199 199 200 198 198 200 206 205 199 199 198 191 196 206 211 216 218 222 226 232 237 242 250
259 273 280 292 283 252 256 279 257 243 278 234 222 212 214 179 78 97 106 115 130 147 160 167 172 179 185 187 188 192 199 199 199 194 195 189 191 197 208 214 219 225 230 233 235 238 243 249 255
256 272 279 286 267 240 253 275 265 246 259 228 209 199 204 188 160 144 132 142 143 148 155 160 164 166 169 170 176 180 181 182 182 183 188 196 202 211 219 225 230 232 236 238 239 241 249 253 258
257 263 267 265 273 270 264 280 260 245 244 212 221 213 202 185 180 177 171 164 163 160 159 161 165 168 168 169 174 176 177 181 185 192 198 206 215 225 229 233 235 239 240 243 244 246 251 256 261
255 261 265 266 267 263 251 267 260 236 237 237 219 208 203 196 189 187 182 178 174 172 166 164 167 170 172 172 173 176 180 183 190 199 209 217 223 229 232 236 239 243 244 246 248 252 255 259 263
245 257 255 256 265 267 269 273 264 214 235 237 223 218 213 209 197 196 195 190 187 183 181 178 177 177 178 179 179 183 190 197 203 212 221 226 229 230 236 240 244 248 250 250 249 253 255 259 265
243 249 269 270 265 276 264 249 256 233 239 238 221 220 218 214 213 211 204 200 198 194 193 192 190 190 190 191 195 199 205 211 216 223 226 227 229 233 242 242 252 258 257 249 250 253 256 260 266
236 235 255 262 267 255 278 266 245 242 242 230 218 217 215 214 213 214 212 209 207 203 202 201 201 202 202 205 209 213 217 220 223 230 233 232 233 238 242 248 256 278 247 246 251 255 260 265 268
231 225 228 236 240 254 272 259 251 270 242 222 220 224 218 215 216 216 217 217 218 216 214 212 211 213 215 217 219 222 225 228 231 238 238 238 240 242 246 250 254 257 255 252 258 261 265 268 270
233 231 230 234 253 251 252 267 276 257 236 222 230 226 223 224 222 223 224 225 226 225 223 222 222 222 223 225 228 230 232 235 239 241 243 245 246 247 246 250 253 258 259 262 263 266 269 271 272
228 226 230 237 231 241 248 262 247 236 231 240 243 237 231 227 228 230 229 229 231 230 229 229 229 230 233 235 237 239 241 242 244 246 247 250 251 248 247 251 254 257 262 266 268 268 271 272 274
228 228 232 230 232 232 242 250 248 241 235 245 249 243 228 232 235 236 235 235 236 237 237 237 235 237 237 246 245 245 245 246 247 248 249 255 255 257 256 255 257 258 263 266 268 270 271 273 275
234 234 224 230 234 235 236 247 258 240 239 239 252 239 237 236 239 244 244 240 239 242 241 240 241 240 241 242 246 253 248 249 249 251 243 251 252 259 259 260 258 261 264 266 268 271 272 273 276